Weather History for KPVU - November, 2013

Change the Weather History Date:

Friday, November 29, 2013

  Actual Average Record
Temperature  
Mean Temperature 37 °F -  
Max Temperature 48 °F 40 °F 62 °F (1999)
Min Temperature 26 °F 25 °F 7 °F (1992)
Degree Days  
Heating Degree Days 28    
Moisture  
Dew Point 27 °F    
Average Humidity 79    
Maximum Humidity 100    
Minimum Humidity 46    
Precipitation  
Precipitation 0.00 in - - ()
Sea Level Pressure  
Sea Level Pressure 30.25 in    
Wind  
Wind Speed 2 mph (ESE)    
Max Wind Speed 13 mph    
Max Gust Speed -    
Visibility 11 miles    
Events      
Averages and records for this station are not official NWS values.
T = Trace of Precipitation, MM = Missing Value Source: NWS Daily Summary

Daily Weather History Graph

Daily Weather History Graph

Search for Another Location

Airport or City:

Trip Planner

Search our weather history database for the weather conditions in past years. The results will help you decide how hot, cold, wet, or windy it might be!

Date:

Astronomy

Nov. 29, 2013 Rise Set
Actual Time 7:28 AM MST 5:02 PM MST
Civil Twilight 6:58 AM MST 5:32 PM MST
Nautical Twilight 6:24 AM MST 6:05 PM MST
Astronomical Twilight 5:52 AM MST 6:38 PM MST
Moon 3:37 AM MST (11/29) 2:49 PM MST (11/29)
Length of Visible Light 10h 33m
Length of Day
9h 33m
Waning Crescent, 13% of the Moon is Illuminated
Nov 29
Waning Crescent
Dec 2
New
Dec 9
First Quarter
Dec 17
Full
Dec 25
Last Quarter

Hourly Weather History & Observations

Time (MST) Temp. Windchill Dew Point Humidity Pressure Visibility Wind Dir Wind Speed Gust Speed Precip Events Conditions
12:15 AM 35.6 °F 32.8 °F 30.2 °F 81% 30.19 in 10.0 mi East 3.5 mph - N/A   Clear
12:35 AM 32.0 °F - 28.4 °F 87% 30.19 in 8.0 mi Calm Calm - N/A   Clear
12:55 AM 35.6 °F - 28.4 °F 75% 30.20 in 10.0 mi Calm Calm - N/A   Mostly Cloudy
1:15 AM 35.6 °F - 30.2 °F 81% 30.20 in 9.0 mi Calm Calm - N/A   Scattered Clouds
1:35 AM 33.8 °F - 28.4 °F 81% 30.20 in 10.0 mi Calm Calm - N/A   Scattered Clouds
1:55 AM 32.0 °F - 28.4 °F 87% 30.21 in 9.0 mi Calm Calm - N/A   Partly Cloudy
2:15 AM 30.2 °F - 24.8 °F 80% 30.21 in 10.0 mi Calm Calm - N/A   Clear
2:35 AM 32.0 °F - 26.6 °F 80% 30.22 in 9.0 mi Calm Calm - N/A   Clear
2:55 AM 30.2 °F 26.7 °F 26.6 °F 86% 30.22 in 10.0 mi North 3.5 mph - N/A   Clear
3:15 AM 30.2 °F - 28.4 °F 93% 30.22 in 10.0 mi Calm Calm - N/A   Clear
3:35 AM 30.2 °F - 26.6 °F 86% 30.23 in 10.0 mi Calm Calm - N/A   Clear
3:55 AM 28.4 °F - 23.0 °F 80% 30.23 in 10.0 mi Calm Calm - N/A   Clear
4:15 AM 28.4 °F 22.2 °F 24.8 °F 86% 30.24 in 10.0 mi South 5.8 mph - N/A   Clear
4:35 AM 28.4 °F - 28.4 °F 100% 30.24 in 10.0 mi Calm Calm - N/A   Clear
4:55 AM 26.6 °F - 23.0 °F 86% 30.24 in 10.0 mi Calm Calm - N/A   Clear
5:15 AM 28.4 °F 24.6 °F 26.6 °F 93% 30.24 in 10.0 mi South 3.5 mph - N/A   Clear
5:35 AM 28.4 °F 23.3 °F 23.0 °F 80% 30.24 in 10.0 mi East 4.6 mph - N/A   Clear
5:55 AM 28.4 °F 23.3 °F 26.6 °F 93% 30.25 in 10.0 mi SSE 4.6 mph - N/A   Clear
6:15 AM 30.2 °F 21.9 °F 24.8 °F 80% 30.25 in 10.0 mi SSE 9.2 mph - N/A   Clear
6:35 AM 28.4 °F 20.4 °F 26.6 °F 93% 30.26 in 10.0 mi East 8.1 mph - N/A   Clear
6:50 AM 28.4 °F 21.2 °F 24.8 °F 86% 30.26 in 15.0 mi East 6.9 mph - N/A   Partly Cloudy
7:55 AM 32.0 °F - 26.6 °F 80% 30.28 in 15.0 mi Calm Calm - N/A   Clear
8:55 AM 35.6 °F 31.7 °F 28.4 °F 75% 30.29 in 15.0 mi ESE 4.6 mph - N/A   Clear
9:55 AM 41.0 °F - 28.4 °F 61% 30.31 in 15.0 mi Calm Calm - N/A   Clear
10:50 AM 44.6 °F 40.2 °F 28.4 °F 53% 30.31 in 15.0 mi SE 8.1 mph - N/A   Clear
11:50 AM 44.6 °F 43.1 °F 32.0 °F 61% 30.29 in 15.0 mi SW 3.5 mph - N/A   Clear
12:50 PM 46.4 °F 43.5 °F 28.4 °F 50% 30.26 in 15.0 mi West 5.8 mph - N/A   Clear
1:50 PM 46.4 °F 43.5 °F 30.2 °F 53% 30.24 in 15.0 mi WNW 5.8 mph - N/A   Clear
2:47 PM 48.2 °F - 28.4 °F 46% 30.23 in 15.0 mi Variable 3.5 mph - N/A   Partly Cloudy
3:49 PM 48.2 °F - 28.4 °F 46% 30.23 in 15.0 mi Variable 3.5 mph - N/A   Partly Cloudy
4:57 PM 44.6 °F 40.7 °F 26.6 °F 49% 30.24 in 15.0 mi NNW 6.9 mph - N/A   Partly Cloudy
5:53 PM 42.8 °F 36.2 °F 30.2 °F 61% 30.25 in 15.0 mi NW 12.7 mph - N/A   Partly Cloudy
6:55 PM 39.2 °F 37.0 °F 30.2 °F 70% 30.26 in 15.0 mi North 3.5 mph - N/A   Partly Cloudy
7:47 PM 37.4 °F - 30.2 °F 75% 30.26 in 15.0 mi Calm Calm - N/A   Partly Cloudy
8:47 PM 33.8 °F 29.6 °F 28.4 °F 81% 30.27 in 15.0 mi ENE 4.6 mph - N/A   Partly Cloudy
9:15 PM 32.0 °F - 28.4 °F 87% 30.28 in 6.0 mi Calm Calm - N/A   Clear
9:35 PM 32.0 °F - 30.2 °F 93% 30.28 in 5.0 mi Calm Calm - N/A   Clear
9:55 PM 30.2 °F - 26.6 °F 86% 30.29 in 6.0 mi Calm Calm - N/A   Clear
10:15 PM 30.2 °F 26.7 °F 26.6 °F 86% 30.29 in 5.0 mi SSE 3.5 mph - N/A   Clear
10:35 PM 30.2 °F - 28.4 °F 93% 30.29 in 5.0 mi Calm Calm - N/A   Clear
10:55 PM 30.2 °F 25.4 °F 28.4 °F 93% 30.29 in 6.0 mi SE 4.6 mph - N/A   Clear
11:15 PM 28.4 °F 24.6 °F 24.8 °F 86% 30.30 in 6.0 mi East 3.5 mph - N/A   Clear
11:35 PM 28.4 °F 23.3 °F 26.6 °F 93% 30.30 in 9.0 mi NE 4.6 mph - N/A   Clear
11:55 PM 30.2 °F 25.4 °F 26.6 °F 86% 30.30 in 10.0 mi East 4.6 mph - N/A   Clear